Location: Gniazdowice
(50.2124°N, 20.2673°E)
Time: 02:02:54
(UTC+00:00)

Meteor 1-28 Rocket - Pass Details

Date: 23 May 2024
Orbit: 474 x 489 km, 97.5° (Epoch: 18 June)

Event Time Altitude Azimuth Distance (km) Brightness Sun altitude
Exits shadow 02:00:52 - 205° (SSW) 1,986 5.6 -5.9°
Reaches altitude 10° 02:01:49 10° 214° (SSW) 1,658 5.1 -5.8°
Maximum altitude 02:04:38 22° 266° (W) 1,101 4.4 -5.5°
Drops below altitude 10° 02:07:28 10° 319° (NW) 1,663 5.8 -5.2°
Sets 02:09:53 0° 335° (NNW) 2,545 6.9 -4.9°
